Regional Weather Roundup
Issued by NWS New Orleans/Baton Rouge, LA

Home | Current Version | Previous Version | Text Only | Print | Product List | Glossary On
Versions: 1 2 3 4 5 6 7 8 9 10 11 12 13 14 15 16 17 18 19 20 21 22 23 24 25 26 27 28 29 30 31 32 33 34 35 36 37 38 39 40 41 42 43 44 45 46 47 48 49 50
000
ASUS44 KLIX 311010
RWRLIX
NEW ORLEANS REGIONAL WEATHER ROUNDUP
NATIONAL WEATHER SERVICE NEW ORLEANS LA
400 AM CST SAT JAN 31 2015

NOTE: "FAIR" INDICATES FEW OR NO CLOUDS BELOW 12,000 FEET WITH NO
      SIGNIFICANT WEATHER AND/OR OBSTRUCTIONS TO VISIBILITY.
      SKY/WX - SKY CONDITION AND SIGNIFICANT WEATHER.
      TMP - AIR TEMPERATURE.     DP    - DEWPOINT TEMPERATURE.
      RH  - RELATIVE HUMIDITY.   PRES  - PRESSURE.
      HI  - HEAT INDEX.          WCI   - WIND CHILL INDEX.

*  THESE STATIONS ARE NOT NWS OR FAA STATIONS AND ARE NOT UNDER
   NWS QUALITY CONTROL.

LAZ038-040-048-061>063-065>067-069-311100-
SOUTHEAST LOUISIANA

CITY           SKY/WX    TMP DP  RH WIND       PRES   REMARKS
N.O. AUDUBON     N/A     50  36  57 MISG        N/A
N.O. INTL ARPT PTCLDY    47  34  60 E7        30.29S
N.O. LAKEFRONT CLEAR     49  34  56 E16       30.29F
N.O. DOWNTOWN* NOT AVBL
SLIDELL        CLEAR     41  30  65 NE7       30.28F
BATON ROUGE    CLEAR     37  31  78 NE7       30.29F WCI  32
BOOTHVILLE     PTCLDY    52  43  71 NE8       30.27F
BELLE CHASSE   PTCLDY    38  34  85 NE3       30.28S
BOGALUSA*        N/A     36  31  83 NE3       30.32F
GALLIANO*      MOSUNNY   52  42  69 MISG      30.28R
NEW ROADS*       N/A     41  32  70 NE7       30.29S
GONZALES*        N/A     43  34  70 NE3       30.28F
HAMMOND*       CLEAR     39  32  75 CALM      30.31F
HOUMA*         CLEAR     42  37  82 NE5       30.27F
PORT FOURCHON* SUNNY     54  45  71 NE10      30.29S

$$

MSZ070-080>082-311100-
SOUTHERN MISSISSIPPI

CITY           SKY/WX    TMP DP  RH WIND       PRES   REMARKS
MCCOMB         CLEAR     39  28  64 E7        30.29F WCI  34
GULFPORT       CLEAR     40  30  67 NE6       30.30F
BILOXI         PTCLDY    39  32  76 NE8       30.31F WCI  34
PASCAGOULA     PTCLDY    32  30  92 CALM      30.32S FOG

$$

COASTAL OBSERVATIONS
LAKE AND NEARSHORE STATIONS

STATION/POSITION TIME  TEMP    WIND        PRES    WAVE
                       AIR SEA DIR/SP/G            HT/PER
                 (UTC) (F)     (DEG/KT/KT) (MB)    (FT/S)
PASCAGOULA       1000   42      40/  5/  7 1025.9
WAVELAND YACHT   1000   44      60/ 10/ 14 1025.0
GRAND ISLE       1000   55 62   70/ 14/ 17 1025.0
SOUTHWEST PASS   1000   53 46   50/ 11/ 12 1024.4
NEW CANAL        1000   48 54   80/ 10/ 16 1025.8
SHELL BEACH      1000   51 56   70/ 15/ 18 1025.1

OFFSHORE STATIONS

STATION/POSITION TIME  TEMP    WIND        PRES    WAVE
                       AIR SEA DIR/SP/G            HT/PER
                 (UTC) (F)     (DEG/KT/KT) (MB)    (FT/S)
64 S DAUPHIN ISL 0940   59 68   60/ 17/ 21 1024.8    4/ 5

$$




USA.gov is the U.S. government's official web portal to all federal, state and local government web resources and services.